Home   Weather   Antananarivo   Past weeks

Flag for Madagascar Past Weather in Antananarivo, Madagascar — Yesterday and Last 2 Weeks

Now
54 °F

Passing clouds.


Feels Like: 54 °F
Forecast: 49 / 78 °F
Wind: No wind

Location: Antananarivo / Ivato

Current Time: Sep 26, 2016 at 1:35:19 AM

Latest Report: Sep 26, 2016 at 1:00 AM


Visibility: N/A

Pressure: 30.15 "Hg (25.84 "Hg at 1287m altitude)

Humidity: 77%

Dew Point: 46 °F

Location of AntananarivoLocation

Past Weather in Antananarivo — Graph

°F

Antananarivo Temperature Yesterday

Maximum temperature yesterday: 84 °F (at 1:30 PM)
Minimum temperature yesterday: 52 °F (at 4:00 AM)
Average temperature yesterday: 66 °F

High & Low Weather Summary for the Past Weeks

 TemperatureHumidityPressure
High84 °F (Sep 25, 1:30 PM)100% (Sep 11, 1:00 AM)30.36 "Hg (Sep 11, 1:00 AM)
Low46 °F (Sep 15, 5:00 AM)16% (Sep 25, 2:00 PM)30.07 "Hg (Sep 25, 2:00 PM)
Average62 °F67%30.24 "Hg
* Reported Sep 11 12:00 AM — Sep 26 12:30 AM, Antananarivo, Weather by CustomWeather, © 2016

Note: Actual official high and low records may vary slightly from our data, if they occured in-between our weather recording intervals... More about our weather records

Advertising

Antananarivo Weather History for the Previous 24 Hours

Scroll right to see more
 ConditionsComfort  
Time TempWeatherWind HumidityBarometerVisibility
12:30 AM
Mon, Sep 26
52 °FPassing clouds.No wind77%30.15 "HgN/A
12:00 AM52 °FPassing clouds.1 mph72%30.15 "HgN/A
11:30 PM
Sun, Sep 25
55 °FPassing clouds.1 mph67%30.21 "HgN/A
11:00 PM57 °FPassing clouds.No wind63%30.18 "HgN/A
10:30 PM59 °FPassing clouds.1 mph59%30.15 "HgN/A
10:00 PM61 °FPassing clouds.2 mph52%30.18 "HgN/A
9:30 PM61 °FPassing clouds.3 mph48%30.18 "HgN/A
9:00 PM63 °FPassing clouds.5 mph42%30.18 "HgN/A
8:30 PM61 °FPassing clouds.7 mph45%30.15 "HgN/A
8:00 PM64 °FPassing clouds.3 mph40%30.15 "HgN/A
7:30 PM64 °FPassing clouds.6 mph43%30.15 "HgN/A
7:00 PM66 °FPassing clouds.7 mph40%30.15 "HgN/A
6:30 PM68 °FPassing clouds.10 mph38%30.12 "HgN/A
6:00 PM70 °FPassing clouds.12 mph35%30.12 "HgN/A
5:30 PM73 °FPassing clouds.12 mph31%30.09 "HgN/A
5:00 PM77 °FPassing clouds.12 mph28%30.09 "HgN/A
4:30 PM79 °FPassing clouds.12 mph24%30.09 "HgN/A
4:00 PM81 °FPassing clouds.10 mph24%30.07 "HgN/A
3:30 PM82 °FPassing clouds.12 mph17%30.07 "HgN/A
3:00 PM82 °FPassing clouds.13 mph19%30.07 "HgN/A
2:30 PM82 °FPassing clouds.10 mph17%30.07 "HgN/A
2:00 PM84 °FSunny.14 mph16%30.07 "Hg10 mi
1:30 PM84 °FPassing clouds.8 mph18%30.09 "HgN/A
1:00 PM82 °FSunny.8 mph19%30.09 "Hg10 mi
12:30 PM82 °FPassing clouds.12 mph19%30.09 "HgN/A
12:00 PM82 °FPassing clouds.12 mph23%30.12 "HgN/A
11:30 AM79 °FSunny.5 mph24%30.12 "Hg10 mi
11:00 AM77 °FPassing clouds.5 mph28%30.15 "HgN/A
10:30 AM75 °FSunny.6 mph31%30.15 "Hg10 mi
10:00 AM73 °FPassing clouds.7 mph27%30.18 "HgN/A
9:30 AM72 °FSunny.3 mph44%30.18 "Hg10 mi
9:00 AM68 °FSunny.No wind53%30.18 "Hg10 mi
8:30 AM64 °FSunny.No wind64%30.18 "Hg10 mi
8:00 AM63 °FPassing clouds.No wind73%30.18 "Hg5 mi
7:30 AM59 °FPassing clouds.No wind88%30.18 "Hg5 mi
7:00 AM57 °FPassing clouds.No wind88%30.15 "Hg5 mi
6:30 AM54 °FPassing clouds.No wind100%30.15 "Hg5 mi
6:00 AM52 °FPassing clouds.No wind94%30.15 "HgN/A
5:30 AM52 °FPassing clouds.No wind94%30.15 "HgN/A
5:00 AM52 °FPassing clouds.No wind94%30.12 "HgN/A
4:30 AM52 °FPassing clouds.No wind94%30.12 "HgN/A
4:00 AM52 °FPassing clouds.No wind94%30.12 "HgN/A
3:30 AM54 °FPassing clouds.No wind88%30.12 "HgN/A
3:00 AM54 °FPassing clouds.No wind94%30.12 "HgN/A
2:30 AM54 °FPassing clouds.No wind94%30.12 "HgN/A
2:00 AM54 °FPassing clouds.No wind88%30.12 "HgN/A
1:30 AM55 °FPassing clouds.5 mph88%30.15 "HgN/A
1:00 AM55 °FPassing clouds.6 mph88%30.15 "HgN/A
Weather by CustomWeather, © 2016

See weather overviewHow to use our weather pages